[[{"header":{"parameterUnit":"m.s-1","parameterCategory":1,"la1":30.2991,"la2":30.254,"lo1":-89.0895,"lo2":-89.0444,"dx":0.0017,"dy":0.0017,"nx":28,"ny":28,"refTime":"2022-11-15T15:00:00:Z","depth":0,"parameterNumber":2,"parameterNumberName":"U-component_of_WINDS"},"data":[0,0,0,0,0,0,0,0,0,0,0,0,0,0,0,0,0,0,0,0,0,0,0,0,0,0,0,0,0,0,0,0,0,0,0,0,0,0,0,0,0,0,0,0,0,0,0,0,0,0,0,0,0,0,0,0,0,0,0.5415,0.5415,0,0.5416,0.5416,0.5416,0.5418,0.5418,0.5419,0.5419,0.5419,0.5419,0.5419,0,0,0,0,0,0,0,0,0,0,0,0,0,0.5414,0.5414,0.5415,0.5415,0.5415,0.5416,0.5416,0.5416,0.5418,0.5418,0.5419,0.5419,0.5419,0.5419,0.5419,0,0,0,0,0,0,0,0,0,0,0,0,0,0.5415,0.5414,0.5415,0.5416,0.5416,0.5416,0.5416,0.5416,0.5418,0.5418,0.5419,0.5419,0.5419,0.5419,0.5419,0.5418,0,0,0.5419,0.5419,0,0,0,0,0,0,0,0,0.5415,0.5415,0.5416,0.5416,0.5416,0.5417,0.5416,0.5417,0.5418,0.5417,0.5419,0.5419,0.5419,0.5419,0.5419,0.5418,0.5418,0.5419,0.5419,0.5419,0.5419,0,0,0,0,0,0,0,0.5414,0.5415,0.5415,0.5416,0.5416,0.5417,0.5417,0.5416,0.5418,0.5418,0.5418,0.5418,0.5419,0.5419,0.5419,0.5418,0.5419,0.5419,0.5419,0.5419,0.5416,0.5416,0,0,0,0,0,0,0.5414,0.5414,0.5415,0.5415,0.5415,0.5416,0.5417,0.5417,0.5418,0.5418,0.5418,0.5418,0.5419,0.5419,0.5419,0.5417,0.5419,0.5419,0.5419,0.5417,0.5416,0.5416,0,0,0,0,0,0,0.5414,0.5414,0.5415,0.5415,0.5415,0.5416,0.5416,0.5417,0.5417,0.5418,0.5418,0.5418,0.5419,0.5419,0.5418,0.5417,0.5419,0.5419,0.5417,0.5416,0.5416,0.5414,0,0,0,0,0,0,0.5414,0.5414,0.5414,0.5415,0.5415,0.5414,0.5416,0.5417,0.5417,0.5417,0.5418,0.5418,0.5419,0.5418,0.5418,0.5417,0.5419,0.5417,0.5417,0.5416,0.5414,0.5414,0.5414,0,0,0,0,0,0.5414,0.5413,0.5414,0.5414,0.5414,0.5414,0.5414,0.5416,0.5417,0.5416,0.5417,0.5418,0.5418,0.5418,0.5418,0.5417,0.5417,0.5417,0.5416,0.5414,0.5414,0.5414,0,0,0,0,0,0,0.5411,0.5413,0.5414,0.5413,0.5413,0.5415,0.5414,0.5415,0.5415,0.5415,0.5417,0.5417,0.5416,0.5417,0.5417,0.5416,0.5417,0.5417,0.5416,0.5415,0.5415,0.5415,0.5419,0,0,0,0,0,0.541,0.541,0.5412,0.541,0.5411,0.5412,0.5412,0.5413,0.5414,0.5414,0.5415,0.5416,0.5416,0.5416,0.5416,0.5415,0.5415,0.5414,0.5414,0.5413,0.5413,0.5413,0.5413,0.5416,0.5416,0.5416,0,0,0.5408,0.5409,0.5409,0.541,0.541,0.541,0.5412,0.5412,0.5412,0.5414,0.5414,0.5414,0.5415,0.5414,0.5414,0.5415,0.5413,0.5413,0.5413,0.5413,0.5413,0.5413,0.5412,0.5416,0.5416,0.5416,0,0,0.5404,0.5405,0.5405,0.5405,0.5407,0.5408,0.5408,0.5409,0.541,0.541,0.5411,0.5411,0.5411,0.5412,0.5412,0.541,0.5411,0.541,0.5409,0.5409,0.5408,0.5408,0.5407,0.5407,0.541,0.541,0.541,0,0.5402,0.5402,0.5404,0.5404,0.5404,0.5407,0.5406,0.5407,0.5408,0.5408,0.5409,0.541,0.541,0.541,0.541,0.541,0.541,0.541,0.5408,0.5408,0.5408,0.5407,0.5407,0.541,0.541,0.541,0.541,0,0.5399,0.5399,0.5398,0.54,0.54,0.54,0.5402,0.5402,0.5403,0.5405,0.5405,0.5406,0.5406,0.5406,0.5407,0.5406,0.5407,0.5408,0.5409,0.5407,0.5407,0.5407,0.541,0.541,0.541,0.541,0,0,0.5392,0.5396,0.5395,0.5396,0.5398,0.5398,0.5398,0.5399,0.54,0.5401,0.5401,0.5401,0.5403,0.5403,0.5404,0.5404,0.5403,0.5405,0.5405,0.5405,0.5402,0.5401,0.5401,0.5404,0.5404,0.5404,0.5402,0,0.5389,0.5389,0.5392,0.5391,0.5391,0.5394,0.5394,0.5396,0.5397,0.5398,0.5399,0.5399,0.5401,0.5401,0.5402,0.5403,0.5402,0.5403,0.5404,0.5404,0.5403,0.5401,0.5399,0.5398,0.5402,0.5402,0.5402,0,0.5385,0.5386,0.5386,0.5389,0.5389,0.5389,0.539,0.5391,0.5393,0.5394,0.5395,0.5397,0.5397,0.5399,0.5399,0.54,0.54,0.5401,0.5401,0.5401,0.5403,0.54,0.5397,0.5397,0.5402,0.5402,0.5402,0,0.538,0.5382,0.5382,0.5383,0.5386,0.5386,0.5387,0.5389,0.539,0.5391,0.5392,0.5393,0.5394,0.5395,0.5397,0.5398,0.5398,0.5399,0.5399,0.5399,0.5398,0.5398,0.5395,0.5399,0.5399,0.5399,0.5399,0,0.5376,0.5376,0.538,0.538,0.538,0.5383,0.5383,0.5385,0.5387,0.5387,0.539,0.539,0.5393,0.5394,0.5396,0.5396,0.5397,0.5398,0.5398,0.5397,0.5397,0.5397,0.5397,0.5399,0.5399,0.5399,0.5399,0,0.5371,0.5374,0.5374,0.5377,0.5378,0.5378,0.5381,0.5381,0.5383,0.5384,0.5384,0.5387,0.5389,0.5391,0.5393,0.5394,0.5394,0.5395,0.5394,0.5394,0.5393,0.5393,0.539,0.539,0.5394,0.5394,0.5394,0,0.5368,0.5368,0.5371,0.5372,0.5373,0.5374,0.5375,0.5379,0.538,0.5382,0.5382,0.5384,0.5385,0.5387,0.539,0.5391,0.5392,0.5391,0.5392,0.5392,0.5392,0.5392,0.5392,0.539,0.539,0.539,0.539,0,0.5362,0.5364,0.5365,0.5367,0.5369,0.537,0.5372,0.5373,0.5376,0.5377,0.5379,0.538,0.5382,0.5384,0.5386,0.5388,0.539,0.539,0.539,0.5389,0.5388,0.5389,0.5393,0.539,0.539,0.539,0.539,0.539,0.5358,0.5358,0.5361,0.5363,0.5365,0.5367,0.5367,0.537,0.5371,0.5373,0.5375,0.5377,0.5379,0.5383,0.5384,0.5385,0.5386,0.5386,0.5386,0.5386,0.5386,0.5388,0.5386,0.5386,0.5386,0.5386,0.5386,0,0.5353,0.5355,0.5356,0.5359,0.5361,0.5363,0.5365,0.5366,0.5368,0.537,0.5372,0.5374,0.5376,0.5379,0.5381,0.5382,0.5383,0.5382,0.5382,0.5382,0.5385,0.5385,0.5381,0.5381,0.5381,0.5381,0.5381,0.5381,0.535,0.5351,0.5353,0.5355,0.5357,0.5359,0.536,0.5362,0.5364,0.5366,0.5368,0.537,0.5373,0.5376,0.5378,0.5378,0.5379,0.5378,0.5379,0.5382,0.5382,0.5382,0.5382,0.5378,0.5378,0.5377,0.5377,0.5377]},{"header":{"parameterUnit":"m.s-1","parameterCategory":1,"la1":30.2991,"la2":30.254,"lo1":-89.0895,"lo2":-89.0444,"dx":0.0017,"dy":0.0017,"nx":28,"ny":28,"refTime":"2022-11-15T15:00:00:Z","depth":0,"parameterNumber":3,"parameterNumberName":"V-component_of_WINDS"},"data":[0,0,0,0,0,0,0,0,0,0,0,0,0,0,0,0,0,0,0,0,0,0,0,0,0,0,0,0,0,0,0,0,0,0,0,0,0,0,0,0,0,0,0,0,0,0,0,0,0,0,0,0,0,0,0,0,0,0,-6.8321,-6.8322,0,-6.844,-6.8441,-6.8443,-6.8393,-6.8391,-6.8388,-6.8385,-6.8501,-6.8507,-6.8512,0,0,0,0,0,0,0,0,0,0,0,0,0,-6.8046,-6.8051,-6.8321,-6.8322,-6.8324,-6.844,-6.8441,-6.8443,-6.8394,-6.839,-6.8387,-6.8384,-6.8499,-6.8506,-6.8513,0,0,0,0,0,0,0,0,0,0,0,0,0,-6.8165,-6.8053,-6.832,-6.8313,-6.8314,-6.8439,-6.8441,-6.8443,-6.8395,-6.839,-6.8386,-6.8382,-6.8497,-6.8505,-6.8514,-6.8651,0,0,-6.854,-6.8544,0,0,0,0,0,0,0,0,-6.8158,-6.8175,-6.8313,-6.8314,-6.8315,-6.8398,-6.8387,-6.8513,-6.8396,-6.8364,-6.8385,-6.838,-6.847,-6.848,-6.8512,-6.8657,-6.8662,-6.8541,-6.8546,-6.855,-6.8552,0,0,0,0,0,0,0,-6.815,-6.817,-6.8368,-6.8315,-6.8316,-6.8303,-6.8315,-6.8411,-6.8439,-6.8366,-6.8363,-6.8378,-6.8469,-6.8504,-6.8514,-6.8663,-6.8541,-6.8548,-6.8553,-6.8557,-6.8928,-6.8932,0,0,0,0,0,0,-6.8143,-6.8163,-6.8364,-6.8371,-6.8225,-6.8311,-6.8325,-6.8375,-6.8438,-6.8443,-6.8382,-6.8375,-6.8491,-6.8504,-6.8518,-6.8684,-6.855,-6.8558,-6.8563,-6.8923,-6.8929,-6.8934,0,0,0,0,0,0,-6.8137,-6.8161,-6.8359,-6.8267,-6.8291,-6.832,-6.8377,-6.838,-6.8414,-6.8449,-6.8454,-6.8412,-6.8488,-6.8506,-6.8619,-6.8687,-6.8562,-6.8569,-6.8918,-6.8925,-6.8931,-6.9016,0,0,0,0,0,0,-6.8129,-6.8159,-6.8213,-6.8268,-6.8296,-6.846,-6.8382,-6.8385,-6.843,-6.8423,-6.8479,-6.8484,-6.8486,-6.8607,-6.8628,-6.8697,-6.8576,-6.8912,-6.8921,-6.8929,-6.9007,-6.9025,-6.904,0,0,0,0,0,-6.812,-6.823,-6.8216,-6.824,-6.8364,-6.8464,-6.848,-6.8482,-6.8435,-6.8489,-6.8512,-6.8482,-6.8676,-6.8619,-6.8642,-6.8714,-6.8907,-6.8918,-6.8929,-6.9,-6.9022,-6.904,0,0,0,0,0,0,-6.818,-6.8237,-6.8222,-6.8354,-6.8405,-6.8456,-6.8523,-6.8505,-6.8568,-6.8559,-6.8557,-6.857,-6.8687,-6.8712,-6.8647,-6.8851,-6.8784,-6.88,-6.8831,-6.8852,-6.8868,-6.8859,-6.8583,0,0,0,0,0,-6.8209,-6.8287,-6.8333,-6.8445,-6.8471,-6.8493,-6.8537,-6.8535,-6.8586,-6.8606,-6.8637,-6.8687,-6.8759,-6.8807,-6.8875,-6.9011,-6.9022,-6.9072,-6.9088,-6.9102,-6.9115,-6.9189,-6.9212,-6.8969,-6.8969,-6.8968,0,0,-6.8269,-6.831,-6.8359,-6.8458,-6.8497,-6.8577,-6.8511,-6.8598,-6.8657,-6.8619,-6.8729,-6.8753,-6.8808,-6.8934,-6.899,-6.8958,-6.9185,-6.9115,-6.9126,-6.9132,-6.9203,-6.9226,-6.9246,-6.8976,-6.8975,-6.8974,0,0,-6.842,-6.8459,-6.8557,-6.8598,-6.8659,-6.8673,-6.8697,-6.8751,-6.8767,-6.8877,-6.8851,-6.8919,-6.9044,-6.9085,-6.9122,-6.9289,-6.9264,-6.9311,-6.9398,-6.947,-6.9489,-6.9506,-6.9566,-6.9587,-6.9325,-6.9325,-6.9325,0,-6.8486,-6.8607,-6.861,-6.87,-6.8744,-6.8716,-6.8815,-6.8854,-6.8933,-6.8963,-6.8926,-6.9083,-6.9118,-6.9252,-6.9294,-6.9324,-6.9351,-6.9305,-6.9486,-6.9503,-6.9519,-6.9576,-6.9599,-6.933,-6.933,-6.9329,-6.9329,0,-6.8686,-6.8771,-6.8842,-6.8923,-6.8975,-6.9069,-6.9084,-6.9136,-6.913,-6.9147,-6.926,-6.9301,-6.9378,-6.941,-6.9403,-6.9544,-6.9522,-6.9486,-6.9419,-6.9548,-6.9601,-6.9623,-6.9338,-6.9336,-6.9334,-6.9333,0,0,-6.8877,-6.8959,-6.8985,-6.9022,-6.9087,-6.9152,-6.9244,-6.9321,-6.9366,-6.9422,-6.9499,-6.9606,-6.9573,-6.9615,-6.9613,-6.9676,-6.9807,-6.9632,-6.9633,-6.9663,-6.9965,-6.9992,-7.0017,-6.9791,-6.9795,-6.9799,-6.9961,0,-6.9033,-6.9198,-6.9203,-6.9353,-6.9431,-6.9406,-6.9486,-6.9534,-6.9553,-6.9621,-6.9641,-6.9717,-6.9668,-6.9693,-6.9755,-6.9778,-6.9867,-6.9766,-6.9861,-6.9865,-6.9849,-7.0046,-7.0074,-7.0225,-6.9981,-6.9985,-6.9988,0,-6.9237,-6.9302,-6.946,-6.9516,-6.9549,-6.9621,-6.9693,-6.9758,-6.9812,-6.9821,-6.987,-6.9858,-6.9951,-6.9882,-7.001,-6.9941,-6.998,-6.9997,-7.0003,-7.0012,-6.9934,-7.006,-7.0273,-7.0296,-7.0021,-7.0018,-7.0016,0,-6.9361,-6.9488,-6.9599,-6.9631,-6.9698,-6.975,-6.978,-6.983,-6.9877,-6.9939,-6.9969,-7.004,-7.0079,-7.0134,-7.0141,-7.009,-7.027,-7.0201,-7.0279,-7.0279,-7.0318,-7.0316,-7.0541,-7.0344,-7.0343,-7.0343,-7.0342,0,-6.9534,-6.9632,-6.9656,-6.9725,-6.9833,-6.9838,-6.9945,-6.9971,-7.0016,-7.0088,-7.0069,-7.0137,-7.0143,-7.0212,-7.0219,-7.0324,-7.0341,-7.0351,-7.0351,-7.0353,-7.0352,-7.0378,-7.0368,-7.0349,-7.0347,-7.0346,-7.0345,0,-6.9691,-6.9711,-6.9831,-6.9886,-6.9902,-6.998,-7.0026,-7.0091,-7.0109,-7.02,-7.0222,-7.0249,-7.033,-7.0343,-7.0437,-7.0441,-7.0567,-7.0557,-7.055,-7.0549,-7.0627,-7.0619,-7.0877,-7.0911,-7.0691,-7.0693,-7.0695,0,-6.9801,-6.9876,-6.994,-6.9988,-7.0022,-7.0099,-7.0148,-7.0155,-7.0205,-7.0273,-7.033,-7.0409,-7.0473,-7.0603,-7.063,-7.0702,-7.0693,-7.0778,-7.0703,-7.0703,-7.0695,-7.069,-7.0698,-7.0793,-7.0795,-7.0797,-7.0799,0,-6.9993,-7.0,-7.0071,-7.0147,-7.0206,-7.0264,-7.032,-7.036,-7.0375,-7.0432,-7.0516,-7.0566,-7.0663,-7.0742,-7.0814,-7.0842,-7.0823,-7.0822,-7.0844,-7.0846,-7.084,-7.0845,-7.059,-7.0816,-7.0814,-7.0813,-7.0812,-7.0811,-7.013,-7.0196,-7.0252,-7.0332,-7.0376,-7.0429,-7.0493,-7.052,-7.0591,-7.0672,-7.0672,-7.0763,-7.0815,-7.091,-7.0944,-7.1015,-7.0987,-7.1019,-7.1027,-7.1035,-7.1043,-7.0829,-7.1028,-7.1027,-7.1027,-7.1026,-7.1026,0,-7.0322,-7.0357,-7.0431,-7.0511,-7.0574,-7.0553,-7.0614,-7.0667,-7.0749,-7.08,-7.0865,-7.0961,-7.1037,-7.1071,-7.1146,-7.1196,-7.1189,-7.1216,-7.1212,-7.1219,-7.1063,-7.1037,-7.122,-7.122,-7.122,-7.122,-7.122,-7.122,-7.0429,-7.0541,-7.0554,-7.0686,-7.072,-7.0812,-7.0849,-7.0897,-7.0938,-7.1047,-7.1112,-7.1134,-7.1178,-7.1257,-7.1326,-7.1333,-7.1362,-7.1393,-7.1396,-7.125,-7.123,-7.1211,-7.1186,-7.1399,-7.1399,-7.1546,-7.1548,-7.1549]}]]